RCN152 RJFU-RJKA

Flight info

Callsign RCN152
Flight time 1h 2m
Altitude 20000
Route KAZSA A582 HKC Y45 BOMAP Y25 KANAH
Aircraft C130/M-SDE2E3FGRY/H

Departure

Time 2026-04-25 23:23
Airport Nagasaki Airport (RJFU)

Arrival

Time 2026-04-26 00:25
Airport Amami Airport (RJKA)
Time Latitude Longitude Altitude Speed Heading
2026-04-25 22:46 32.91511 129.91961 25 ft 0 kts 318°
2026-04-25 22:54 32.91508 129.91932 29 ft 0 kts 318°
2026-04-25 22:55 32.91552 129.91878 28 ft 0 kts 320°
2026-04-25 23:13 32.91563 129.91854 27 ft 3 kts 242°
2026-04-25 23:13 32.91549 129.91837 26 ft 3 kts 227°
2026-04-25 23:14 32.91536 129.91819 27 ft 1 kts 246°
2026-04-25 23:14 32.91538 129.91809 28 ft 1 kts 306°
2026-04-25 23:14 32.91544 129.91801 25 ft 2 kts 310°
2026-04-25 23:14 32.91554 129.91787 26 ft 2 kts 310°
2026-04-25 23:15 32.91596 129.91727 26 ft 13 kts 313°
2026-04-25 23:15 32.91651 129.91666 29 ft 9 kts 318°
2026-04-25 23:15 32.91687 129.91627 25 ft 6 kts 318°
2026-04-25 23:15 32.91718 129.91594 24 ft 6 kts 318°
2026-04-25 23:16 32.91749 129.91561 28 ft 6 kts 318°
2026-04-25 23:16 32.91783 129.91525 26 ft 7 kts 318°
2026-04-25 23:16 32.91819 129.91486 26 ft 7 kts 318°
2026-04-25 23:16 32.91880 129.91421 28 ft 21 kts 318°
2026-04-25 23:17 32.92007 129.91285 27 ft 23 kts 318°
2026-04-25 23:17 32.92113 129.91173 25 ft 18 kts 318°
2026-04-25 23:17 32.92194 129.91087 27 ft 13 kts 318°
2026-04-25 23:17 32.92252 129.91025 27 ft 10 kts 318°
2026-04-25 23:18 32.92296 129.90977 27 ft 7 kts 318°
2026-04-25 23:18 32.92330 129.90941 27 ft 6 kts 318°
2026-04-25 23:18 32.92357 129.90913 28 ft 4 kts 318°
2026-04-25 23:18 32.92403 129.90863 28 ft 19 kts 317°
2026-04-25 23:19 32.92523 129.90736 26 ft 22 kts 320°
2026-04-25 23:19 32.92623 129.90628 25 ft 17 kts 318°
2026-04-25 23:19 32.92698 129.90547 26 ft 12 kts 318°
2026-04-25 23:19 32.92752 129.90490 24 ft 9 kts 318°
2026-04-25 23:20 32.92783 129.90434 26 ft 8 kts 281°
2026-04-25 23:20 32.92765 129.90390 25 ft 6 kts 235°
2026-04-25 23:20 32.92739 129.90346 23 ft 7 kts 235°
2026-04-25 23:20 32.92706 129.90299 23 ft 7 kts 205°
2026-04-25 23:21 32.92664 129.90313 23 ft 7 kts 138°
2026-04-25 23:21 32.92660 129.90317 24 ft 0 kts 138°
2026-04-25 23:22 32.92466 129.90522 23 ft 72 kts 139°
2026-04-25 23:22 32.91927 129.91096 49 ft 131 kts 139°
2026-04-25 23:22 32.91187 129.91906 432 ft 156 kts 136°
2026-04-25 23:23 32.89593 129.93598 1975 ft 154 kts 135°
2026-04-25 23:23 32.88789 129.94512 2593 ft 166 kts 134°
2026-04-25 23:23 32.87787 129.95248 3251 ft 176 kts 165°
2026-04-25 23:23 32.86630 129.95762 3944 ft 183 kts 143°
2026-04-25 23:24 32.85582 129.96652 4697 ft 188 kts 150°
2026-04-25 23:24 32.84426 129.97395 5382 ft 195 kts 152°
2026-04-25 23:24 32.83182 129.98151 6177 ft 201 kts 154°
2026-04-25 23:24 32.81928 129.98869 6935 ft 205 kts 155°
2026-04-25 23:25 32.80625 129.99594 7720 ft 207 kts 155°
2026-04-25 23:25 32.79305 130.00309 8529 ft 210 kts 156°
2026-04-25 23:25 32.77966 130.01015 9348 ft 212 kts 156°
2026-04-25 23:25 32.76616 130.01722 10163 ft 213 kts 157°
2026-04-25 23:26 32.75252 130.02427 10929 ft 215 kts 158°
2026-04-25 23:26 32.73872 130.03136 11704 ft 216 kts 158°
2026-04-25 23:26 32.72486 130.03843 12502 ft 218 kts 159°
2026-04-25 23:26 32.71090 130.04556 13333 ft 219 kts 159°
2026-04-25 23:27 32.69678 130.05274 14164 ft 221 kts 160°
2026-04-25 23:27 32.68260 130.06000 15008 ft 222 kts 161°
2026-04-25 23:27 32.66840 130.06725 15794 ft 223 kts 162°
2026-04-25 23:27 32.65413 130.07450 16520 ft 223 kts 163°
2026-04-25 23:28 32.63969 130.08113 17249 ft 222 kts 167°
2026-04-25 23:28 32.62517 130.08728 17970 ft 222 kts 168°
2026-04-25 23:28 32.61054 130.09375 18593 ft 224 kts 167°
2026-04-25 23:28 32.59597 130.10059 19092 ft 233 kts 167°
2026-04-25 23:29 32.58004 130.10824 19183 ft 259 kts 165°
2026-04-25 23:29 32.56283 130.11693 19387 ft 278 kts 164°
2026-04-25 23:29 32.54467 130.12647 19650 ft 293 kts 163°
2026-04-25 23:29 32.52575 130.13668 19947 ft 304 kts 163°
2026-04-25 23:30 32.50623 130.14732 20014 ft 322 kts 162°
2026-04-25 23:30 32.48540 130.15873 20030 ft 338 kts 162°
2026-04-25 23:30 32.46360 130.17071 20046 ft 352 kts 162°
2026-04-25 23:30 32.44100 130.18316 20061 ft 363 kts 161°
2026-04-25 23:31 32.41786 130.19598 20069 ft 372 kts 161°
2026-04-25 23:31 32.39391 130.20821 20072 ft 376 kts 165°
2026-04-25 23:31 32.37029 130.22262 20071 ft 388 kts 156°
2026-04-25 23:31 32.34652 130.23826 20079 ft 391 kts 158°
2026-04-25 23:32 32.32221 130.25305 20080 ft 394 kts 160°
2026-04-25 23:32 32.29751 130.26723 20081 ft 396 kts 161°
2026-04-25 23:32 32.27246 130.28107 20086 ft 398 kts 161°
2026-04-25 23:32 32.24755 130.29453 20085 ft 399 kts 161°
2026-04-25 23:33 32.22221 130.30806 20080 ft 401 kts 162°
2026-04-25 23:33 32.19672 130.32155 20080 ft 402 kts 162°
2026-04-25 23:33 32.17125 130.33502 20081 ft 403 kts 162°
2026-04-25 23:33 32.14546 130.34860 20079 ft 403 kts 162°
2026-04-25 23:34 32.11982 130.36214 20086 ft 404 kts 162°
2026-04-25 23:34 32.09413 130.37567 20082 ft 405 kts 162°
2026-04-25 23:34 32.06841 130.38919 20083 ft 405 kts 162°
2026-04-25 23:34 32.04266 130.40274 20079 ft 405 kts 162°
2026-04-25 23:35 32.01690 130.41627 20075 ft 405 kts 162°
2026-04-25 23:35 31.99122 130.42978 20074 ft 405 kts 162°
2026-04-25 23:35 31.96575 130.44318 20072 ft 402 kts 162°
2026-04-25 23:35 31.94065 130.45643 19997 ft 387 kts 162°
2026-04-25 23:36 31.91649 130.46917 19972 ft 374 kts 162°
2026-04-25 23:36 31.90088 130.47739 19963 ft 367 kts 163°
2026-04-25 23:36 31.86992 130.49361 19955 ft 361 kts 163°
2026-04-25 23:36 31.84703 130.50558 19953 ft 359 kts 163°
2026-04-25 23:37 31.82424 130.51746 19944 ft 358 kts 163°
2026-04-25 23:37 31.80156 130.52930 19942 ft 355 kts 163°
2026-04-25 23:37 31.77909 130.54106 19931 ft 350 kts 163°
2026-04-25 23:37 31.75692 130.55263 19929 ft 348 kts 163°
2026-04-25 23:38 31.73475 130.56422 19927 ft 347 kts 163°
2026-04-25 23:38 31.71299 130.57557 19926 ft 348 kts 163°
2026-04-25 23:38 31.69078 130.58715 19926 ft 351 kts 163°
2026-04-25 23:38 31.66823 130.59884 19928 ft 356 kts 163°
2026-04-25 23:39 31.64539 130.61070 19934 ft 360 kts 163°
2026-04-25 23:39 31.62235 130.62270 19938 ft 364 kts 163°
2026-04-25 23:39 31.59913 130.63481 19937 ft 367 kts 163°
2026-04-25 23:39 31.57544 130.64556 19935 ft 360 kts 174°
2026-04-25 23:40 31.55086 130.65083 19941 ft 360 kts 176°
2026-04-25 23:40 31.52621 130.65587 19940 ft 359 kts 179°
2026-04-25 23:40 31.50141 130.65907 19938 ft 357 kts 183°
2026-04-25 23:40 31.47770 130.65556 19931 ft 343 kts 204°
2026-04-25 23:41 31.45748 130.64181 19938 ft 335 kts 222°
2026-04-25 23:41 31.43789 130.62682 19945 ft 340 kts 209°
2026-04-25 23:41 31.41550 130.61730 19950 ft 345 kts 200°
2026-04-25 23:41 31.39185 130.61160 19951 ft 350 kts 194°
2026-04-25 23:42 31.36747 130.60859 19950 ft 353 kts 190°
2026-04-25 23:42 31.34281 130.60739 19951 ft 355 kts 187°
2026-04-25 23:42 31.31801 130.60734 19950 ft 357 kts 186°
2026-04-25 23:42 31.29317 130.60802 19949 ft 358 kts 185°
2026-04-25 23:43 31.26820 130.60910 19948 ft 358 kts 184°
2026-04-25 23:43 31.24325 130.61041 19946 ft 359 kts 184°
2026-04-25 23:43 31.21830 130.61188 19945 ft 360 kts 184°
2026-04-25 23:43 31.19326 130.61338 19945 ft 360 kts 184°
2026-04-25 23:44 31.16862 130.61488 19945 ft 359 kts 184°
2026-04-25 23:44 31.14368 130.61642 19939 ft 359 kts 184°
2026-04-25 23:44 31.11872 130.61794 19940 ft 359 kts 184°
2026-04-25 23:44 31.09378 130.61948 19935 ft 359 kts 184°
2026-04-25 23:45 31.06887 130.62100 19933 ft 359 kts 184°
2026-04-25 23:45 31.04398 130.62251 19933 ft 358 kts 184°
2026-04-25 23:45 31.01904 130.62404 19928 ft 358 kts 184°
2026-04-25 23:45 30.99421 130.62555 19930 ft 358 kts 184°
2026-04-25 23:46 30.96925 130.62708 19929 ft 358 kts 184°
2026-04-25 23:46 30.94432 130.62859 19925 ft 358 kts 184°
2026-04-25 23:46 30.91946 130.63010 19924 ft 358 kts 184°
2026-04-25 23:46 30.89452 130.63162 19921 ft 358 kts 184°
2026-04-25 23:47 30.86977 130.63312 19920 ft 358 kts 184°
2026-04-25 23:47 30.84514 130.63463 19919 ft 357 kts 184°
2026-04-25 23:47 30.82038 130.63612 19914 ft 357 kts 184°
2026-04-25 23:47 30.80353 130.63715 19914 ft 357 kts 184°
2026-04-25 23:48 30.77067 130.63914 19916 ft 357 kts 184°
2026-04-25 23:48 30.74578 130.64066 19912 ft 357 kts 184°
2026-04-25 23:48 30.72096 130.64217 19908 ft 357 kts 184°
2026-04-25 23:48 30.69612 130.64366 19913 ft 357 kts 184°
2026-04-25 23:49 30.67131 130.64517 19908 ft 357 kts 184°
2026-04-25 23:49 30.64655 130.64667 19909 ft 356 kts 184°
2026-04-25 23:49 30.62170 130.64818 19908 ft 356 kts 184°
2026-04-25 23:49 30.59699 130.64967 19904 ft 356 kts 184°
2026-04-25 23:50 30.58059 130.65067 19901 ft 356 kts 184°
2026-04-25 23:50 30.55580 130.65217 19902 ft 356 kts 184°
2026-04-25 23:50 30.53110 130.65366 19900 ft 356 kts 184°
2026-04-25 23:50 30.50635 130.65516 19899 ft 356 kts 184°
2026-04-25 23:51 30.48154 130.65665 19899 ft 356 kts 184°
2026-04-25 23:51 30.45686 130.65814 19893 ft 355 kts 184°
2026-04-25 23:51 30.43216 130.65962 19892 ft 355 kts 184°
2026-04-25 23:51 30.40750 130.66111 19893 ft 355 kts 184°
2026-04-25 23:52 30.38279 130.66261 19889 ft 355 kts 184°
2026-04-25 23:52 30.35805 130.66405 19890 ft 355 kts 184°
2026-04-25 23:52 30.33361 130.66554 19887 ft 355 kts 184°
2026-04-25 23:52 30.30891 130.66699 19882 ft 355 kts 185°
2026-04-25 23:53 30.28494 130.66397 19871 ft 341 kts 204°
2026-04-25 23:53 30.26316 130.65382 19881 ft 337 kts 208°
2026-04-25 23:53 30.24162 130.64301 19880 ft 336 kts 209°
2026-04-25 23:53 30.22030 130.63193 19881 ft 336 kts 210°
2026-04-25 23:54 30.19902 130.62071 19876 ft 336 kts 210°
2026-04-25 23:54 30.17781 130.60948 19877 ft 336 kts 210°
2026-04-25 23:54 30.15647 130.59821 19872 ft 336 kts 210°
2026-04-25 23:54 30.13523 130.58705 19872 ft 336 kts 210°
2026-04-25 23:55 30.11397 130.57588 19873 ft 336 kts 210°
2026-04-25 23:55 30.09262 130.56472 19871 ft 336 kts 210°
2026-04-25 23:55 30.07163 130.55374 19868 ft 336 kts 210°
2026-04-25 23:55 30.05034 130.54261 19865 ft 335 kts 210°
2026-04-25 23:56 30.02882 130.53136 19865 ft 335 kts 210°
2026-04-25 23:56 30.00785 130.52041 19866 ft 335 kts 210°
2026-04-25 23:56 29.98658 130.50931 19865 ft 335 kts 210°
2026-04-25 23:56 29.96531 130.49824 19864 ft 335 kts 210°
2026-04-25 23:57 29.94407 130.48716 19862 ft 335 kts 210°
2026-04-25 23:57 29.92281 130.47609 19861 ft 335 kts 210°
2026-04-25 23:57 29.90157 130.46504 19860 ft 335 kts 210°
2026-04-25 23:57 29.88035 130.45395 19860 ft 335 kts 210°
2026-04-25 23:58 29.85912 130.44291 19866 ft 334 kts 210°
2026-04-25 23:58 29.83804 130.43200 20046 ft 329 kts 210°
2026-04-25 23:58 29.81715 130.42113 20064 ft 329 kts 210°
2026-04-25 23:58 29.79626 130.41022 20064 ft 330 kts 210°
2026-04-25 23:59 29.77531 130.39932 20062 ft 330 kts 210°
2026-04-25 23:59 29.75436 130.38843 20065 ft 331 kts 210°
2026-04-25 23:59 29.73363 130.37766 20063 ft 331 kts 210°
2026-04-25 23:59 29.71269 130.36684 20066 ft 331 kts 210°
2026-04-26 00:00 29.69173 130.35598 20069 ft 330 kts 210°
2026-04-26 00:00 29.67073 130.34509 20066 ft 330 kts 210°
2026-04-26 00:00 29.64977 130.33422 20067 ft 330 kts 210°
2026-04-26 00:00 29.62883 130.32335 20069 ft 330 kts 210°
2026-04-26 00:01 29.60791 130.31253 20066 ft 330 kts 210°
2026-04-26 00:01 29.58701 130.30169 20068 ft 330 kts 210°
2026-04-26 00:01 29.56608 130.29086 20073 ft 330 kts 210°
2026-04-26 00:01 29.54518 130.28006 20074 ft 330 kts 210°
2026-04-26 00:02 29.52427 130.26927 20067 ft 329 kts 210°
2026-04-26 00:02 29.50338 130.25846 20071 ft 329 kts 210°
2026-04-26 00:02 29.48246 130.24766 20071 ft 330 kts 210°
2026-04-26 00:02 29.46146 130.23682 20070 ft 331 kts 210°
2026-04-26 00:03 29.44051 130.22598 20073 ft 331 kts 209°
2026-04-26 00:03 29.41945 130.21511 20073 ft 332 kts 209°
2026-04-26 00:03 29.39840 130.20425 20076 ft 332 kts 209°
2026-04-26 00:03 29.37727 130.19337 20074 ft 333 kts 209°
2026-04-26 00:04 29.35611 130.18247 20077 ft 333 kts 209°
2026-04-26 00:04 29.33501 130.17161 20074 ft 333 kts 209°
2026-04-26 00:04 29.31409 130.16082 20074 ft 333 kts 209°
2026-04-26 00:04 29.29294 130.14993 20076 ft 333 kts 209°
2026-04-26 00:05 29.27178 130.13905 20078 ft 334 kts 209°
2026-04-26 00:05 29.25053 130.12812 20077 ft 334 kts 209°
2026-04-26 00:05 29.22925 130.11715 19914 ft 338 kts 209°
2026-04-26 00:05 29.20745 130.10591 19534 ft 348 kts 209°
2026-04-26 00:06 29.18513 130.09446 19165 ft 351 kts 209°
2026-04-26 00:06 29.16301 130.08316 18736 ft 347 kts 209°
2026-04-26 00:06 29.14104 130.07197 18308 ft 342 kts 209°
2026-04-26 00:06 29.11967 130.06101 17828 ft 339 kts 209°
2026-04-26 00:07 29.09824 130.04999 17351 ft 336 kts 209°
2026-04-26 00:07 29.07698 130.03908 16880 ft 334 kts 209°
2026-04-26 00:07 29.05604 130.02834 16420 ft 325 kts 209°
2026-04-26 00:07 29.03566 130.01791 15960 ft 319 kts 209°
2026-04-26 00:08 29.01557 130.00760 15510 ft 312 kts 209°
2026-04-26 00:08 28.99624 129.99775 15057 ft 297 kts 209°
2026-04-26 00:08 28.97775 129.98830 14597 ft 286 kts 209°
2026-04-26 00:08 28.95983 129.97914 14144 ft 278 kts 209°
2026-04-26 00:09 28.94239 129.97020 13664 ft 272 kts 208°
2026-04-26 00:09 28.92523 129.96141 13166 ft 268 kts 208°
2026-04-26 00:09 28.90831 129.95274 12661 ft 265 kts 208°
2026-04-26 00:09 28.89175 129.94429 12175 ft 262 kts 208°
2026-04-26 00:10 28.87504 129.93577 11685 ft 257 kts 208°
2026-04-26 00:10 28.85886 129.92751 11126 ft 254 kts 208°
2026-04-26 00:10 28.84297 129.91940 10582 ft 252 kts 208°
2026-04-26 00:10 28.82688 129.91114 10039 ft 249 kts 208°
2026-04-26 00:11 28.81113 129.90308 9471 ft 247 kts 208°
2026-04-26 00:11 28.79572 129.89518 8923 ft 245 kts 207°
2026-04-26 00:11 28.78022 129.88725 8341 ft 243 kts 207°
2026-04-26 00:11 28.76482 129.87938 7775 ft 242 kts 207°
2026-04-26 00:12 28.74950 129.87156 7224 ft 240 kts 207°
2026-04-26 00:12 28.73430 129.86383 6772 ft 239 kts 206°
2026-04-26 00:12 28.71913 129.85614 6407 ft 237 kts 206°
2026-04-26 00:12 28.70411 129.84850 5915 ft 237 kts 206°
2026-04-26 00:13 28.68889 129.84072 5388 ft 242 kts 206°
2026-04-26 00:13 28.67341 129.83281 4912 ft 244 kts 206°
2026-04-26 00:13 28.65794 129.82495 4404 ft 243 kts 205°
2026-04-26 00:13 28.64250 129.81714 3892 ft 242 kts 205°
2026-04-26 00:14 28.62728 129.80944 3466 ft 235 kts 205°
2026-04-26 00:14 28.61263 129.80200 3098 ft 225 kts 205°
2026-04-26 00:14 28.59857 129.79485 2693 ft 218 kts 205°
2026-04-26 00:14 28.58480 129.78787 2370 ft 214 kts 205°
2026-04-26 00:15 28.57132 129.78108 2118 ft 211 kts 206°
2026-04-26 00:15 28.55809 129.77444 2147 ft 214 kts 206°
2026-04-26 00:15 28.54371 129.76712 2329 ft 245 kts 205°
2026-04-26 00:15 28.52723 129.75878 2585 ft 271 kts 206°
2026-04-26 00:16 28.50936 129.74974 2864 ft 289 kts 205°
2026-04-26 00:16 28.49062 129.74063 3036 ft 298 kts 204°
2026-04-26 00:16 28.47141 129.73156 3034 ft 289 kts 204°
2026-04-26 00:16 28.45344 129.72323 3025 ft 269 kts 204°
2026-04-26 00:17 28.43714 129.71435 3002 ft 251 kts 218°
2026-04-26 00:17 28.42405 129.70215 2996 ft 238 kts 221°
2026-04-26 00:17 28.41150 129.69059 2978 ft 227 kts 220°
2026-04-26 00:17 28.39961 129.67955 2885 ft 215 kts 220°
2026-04-26 00:18 28.38798 129.66881 2533 ft 216 kts 221°
2026-04-26 00:18 28.37630 129.65810 2202 ft 215 kts 221°
2026-04-26 00:18 28.36473 129.64746 1911 ft 214 kts 221°
2026-04-26 00:18 28.35318 129.63683 1623 ft 213 kts 221°
2026-04-26 00:19 28.34197 129.62642 1435 ft 205 kts 220°
2026-04-26 00:19 28.33130 129.61667 1445 ft 188 kts 221°
2026-04-26 00:19 28.32175 129.60799 1556 ft 166 kts 221°
2026-04-26 00:19 28.31319 129.60024 1572 ft 147 kts 221°
2026-04-26 00:20 28.30591 129.59347 1636 ft 126 kts 221°
2026-04-26 00:20 28.29920 129.58743 1587 ft 131 kts 217°
2026-04-26 00:20 28.28983 129.58601 1956 ft 152 kts 160°
2026-04-26 00:20 28.28275 129.59506 2365 ft 166 kts 110°
2026-04-26 00:21 28.28312 129.60883 2346 ft 185 kts 66°
2026-04-26 00:21 28.29045 129.62083 2234 ft 186 kts 47°
2026-04-26 00:21 28.29914 129.63116 2033 ft 177 kts 40°
2026-04-26 00:21 28.30832 129.64004 1836 ft 172 kts 33°
2026-04-26 00:22 28.31840 129.64813 1729 ft 182 kts 30°
2026-04-26 00:22 28.32931 129.65576 1633 ft 187 kts 28°
2026-04-26 00:22 28.34070 129.66302 1464 ft 185 kts 26°
2026-04-26 00:22 28.35197 129.66966 1261 ft 180 kts 24°
2026-04-26 00:23 28.36314 129.67592 1094 ft 175 kts 21°
2026-04-26 00:23 28.37376 129.68154 1027 ft 161 kts 21°
2026-04-26 00:23 28.38261 129.68611 998 ft 124 kts 20°
2026-04-26 00:23 28.39044 129.69015 887 ft 124 kts 22°
2026-04-26 00:24 28.39837 129.69489 666 ft 134 kts 24°
2026-04-26 00:24 28.40673 129.69948 449 ft 133 kts 24°
2026-04-26 00:24 28.41488 129.70398 261 ft 129 kts 22°
2026-04-26 00:24 28.42287 129.70828 65 ft 120 kts 22°
2026-04-26 00:25 28.42949 129.71176 32 ft 84 kts 27°
2026-04-26 00:25 28.43365 129.71403 30 ft 64 kts 25°
2026-04-26 00:25 28.43510 129.71411 28 ft 7 kts 277°
2026-04-26 00:25 28.43512 129.71396 28 ft 0 kts 281°
2026-04-26 00:26 28.43518 129.71368 27 ft 4 kts 294°
2026-04-26 00:26 28.43528 129.71344 27 ft 8 kts 296°
2026-04-26 00:26 28.43535 129.71320 27 ft 1 kts 255°
2026-04-26 00:26 28.43465 129.71263 28 ft 22 kts 207°
2026-04-26 00:27 28.43344 129.71197 29 ft 16 kts 202°
2026-04-26 00:27 28.43204 129.71118 30 ft 17 kts 206°
2026-04-26 00:27 28.43126 129.71075 31 ft 8 kts 206°
2026-04-26 00:27 28.43110 129.71051 31 ft 2 kts 276°
2026-04-26 00:28 28.43127 129.71003 31 ft 9 kts 298°
2026-04-26 00:28 28.43146 129.70964 31 ft 2 kts 295°
2026-04-26 00:28 28.43150 129.70953 31 ft 6 kts 294°
2026-04-26 00:28 28.43161 129.70927 31 ft 0 kts 295°